Location: �bnet
(46.9957°N, 8.4908°E)
Time: 04:08:24
(UTC+00:00)

Cosmos 1821 Rocket - Pass Details

Date: 11 May 2021
Orbit: 945 x 1004 km, 82.9° (Epoch: 23 June)

Event Time Altitude Azimuth Distance (km) Brightness Sun altitude
Rises 23:31:03 0° 348° (NNW) 3,744 8.3 -24.8°
Reaches altitude 10° 23:33:37 10° 346° (NNW) 2,790 7.3 -24.8°
Maximum altitude 23:39:56 63° 267° (W) 1,111 4.2 -24.7°
Enters shadow 23:41:21 51° 216° (SW) 1,249 4.2 -24.7°
